H1 CPF 2 NER 2020 12 10 9 345 01 glonass131 H2 1301901 9131 39155 2020 12 10 0 0 0 2020 12 13 23 45 0 900 1 1 0 0 0 1 H9 10 0 59193 0.00000 0 -4609606.953 13066132.870 21463866.350 10 0 59193 900.00000 0 -5898672.445 10693392.194 22435716.458 10 0 59193 1800.00000 0 -7409276.301 8343607.834 22973700.898 10 0 59193 2700.00000 0 -9111479.867 6079252.228 23067220.936 10 0 59193 3600.00000 0 -10964590.586 3956897.213 22714233.078 10 0 59193 4500.00000 0 -12918681.350 2025056.119 21921305.943 10 0 59193 5400.00000 0 -14916512.660 322368.406 20703515.165 10 0 59193 6300.00000 0 -16895780.576 -1123798.003 19084176.506 10 0 59193 7200.00000 0 -18791599.118 -2298268.299 17094420.259 10 0 59193 8100.00000 0 -20539115.510 -3198467.145 14772612.917 10 0 59193 9000.00000 0 -22076150.072 -3834291.867 12163634.952 10 0 59193 9900.00000 0 -23345750.468 -4227456.525 9318026.827 10 0 59193 10800.00000 0 -24298552.623 -4410333.368 6291018.186 10 0 59193 11700.00000 0 -24894847.713 -4424339.672 3141458.099 10 0 59193 12600.00000 0 -25106266.238 -4317937.672 -69333.033 10 0 59193 13500.00000 0 -24917005.892 -4144332.501 -3278767.168 10 0 59193 14400.00000 0 -24324549.022 -3958966.616 -6424223.365 10 0 59193 15300.00000 0 -23339837.160 -3816918.505 -9444287.814 10 0 59193 16200.00000 0 -21986893.566 -3770318.206 -12279972.965 10 0 59193 17100.00000 0 -20301908.540 -3865891.769 -14875889.860 10 0 59193 18000.00000 0 -18331825.710 -4142741.381 -17181348.562 10 0 59193 18900.00000 0 -16132489.193 -4630457.737 -19151363.406 10 0 59193 19800.00000 0 -13766430.411 -5347646.706 -20747542.012 10 0 59193 20700.00000 0 -11300388.947 -6300934.190 -21938839.715 10 0 59193 21600.00000 0 -8802672.838 -7484492.234 -22702164.357 10 0 59193 22500.00000 0 -6340470.218 -8880106.712 -23022819.853 10 0 59193 23400.00000 0 -3977225.825 -10457783.483 -22894780.491 10 0 59193 24300.00000 0 -1770192.366 -12176866.840 -22320791.746 10 0 59193 25200.00000 0 231741.314 -13987622.230 -21312296.986 10 0 59193 26100.00000 0 1989855.645 -15833215.611 -19889193.025 10 0 59193 27000.00000 0 3476965.861 -17652005.346 -18079420.885 10 0 59193 27900.00000 0 4678293.167 -19380049.672 -15918401.239 10 0 59193 28800.00000 0 5591808.130 -20953724.082 -13448326.991 10 0 59193 29700.00000 0 6228035.264 -22312338.897 -10717327.958 10 0 59193 30600.00000 0 6609330.404 -23400647.776 -7778524.842 10 0 59193 31500.00000 0 6768664.242 -24171142.875 -4688991.681 10 0 59193 32400.00000 0 6747965.884 -24586041.801 -1508647.271 10 0 59193 33300.00000 0 6596098.152 -24618884.656 1700902.855 10 0 59193 34200.00000 0 6366551.185 -24255675.915 4877551.621 10 0 59193 35100.00000 0 6114952.108 -23495524.949 7959880.455 10 0 59193 36000.00000 0 5896495.585 -22350759.727 10888332.094 10 0 59193 36900.00000 0 5763402.804 -20846509.903 13606344.633 10 0 59193 37800.00000 0 5762514.856 -19019777.097 16061426.381 10 0 59193 38700.00000 0 5933120.604 -16918030.916 18206152.418 10 0 59193 39600.00000 0 6305109.212 -14597388.382 19999065.206 10 0 59193 40500.00000 0 6897524.193 -12120451.040 21405463.468 10 0 59193 41400.00000 0 7717579.435 -9553887.717 22398065.492 10 0 59193 42300.00000 0 8760178.842 -6965861.086 22957534.957 10 0 59193 43200.00000 0 10007960.938 -4423402.435 23072859.697 10 0 59193 44100.00000 0 11431868.455 -1989841.294 22741575.983 10 0 59193 45000.00000 0 12992221.521 277605.358 21969833.317 10 0 59193 45900.00000 0 14640252.466 2329985.713 20772297.259 10 0 59193 46800.00000 0 16320041.001 4128419.045 19171890.383 10 0 59193 47700.00000 0 17970771.587 5645479.941 17199374.302 10 0 59193 48600.00000 0 19529220.805 6866102.873 14892778.540 10 0 59193 49500.00000 0 20932372.147 7787968.514 12296685.048 10 0 59193 50400.00000 0 22120049.222 8421354.491 9461380.249 10 0 59193 51300.00000 0 23037456.621 8788455.721 6441889.486 10 0 59193 52200.00000 0 23637520.498 8922201.942 3296911.588 10 0 59193 53100.00000 0 23882928.459 8864621.645 87674.073 10 0 59193 54000.00000 0 23747780.428 8664821.524 -3123268.391 10 0 59193 54900.00000 0 23218778.254 8376667.509 -6273267.783 10 0 59193 55800.00000 0 22295901.280 8056266.861 -9300823.070 10 0 59193 56700.00000 0 20992537.141 7759359.922 -12146800.928 10 0 59193 57600.00000 0 19335060.568 7538734.364 -14755610.903 10 0 59193 58500.00000 0 17361876.965 7441774.049 -17076309.900 10 0 59193 59400.00000 0 15121970.757 7508248.804 -19063612.567 10 0 59193 60300.00000 0 12673019.925 7768440.909 -20678786.453 10 0 59193 61200.00000 0 10079156.889 8241689.239 -21890413.394 10 0 59193 62100.00000 0 7408470.829 8935413.727 -22675001.932 10 0 59193 63000.00000 0 4730357.301 9844661.784 -23017438.971 10 0 59193 63900.00000 0 2112827.124 10952195.608 -22911272.465 10 0 59193 64800.00000 0 -380112.428 12229115.983 -22358820.734 10 0 59193 65700.00000 0 -2690894.821 13635995.221 -21371107.607 10 0 59193 66600.00000 0 -4770548.793 15124470.214 -19967626.182 10 0 59193 67500.00000 0 -6580481.833 16639227.299 -18175937.414 10 0 59193 68400.00000 0 -8093820.400 18120294.345 -16031112.853 10 0 59193 69300.00000 0 -9296253.605 19505542.856 -13575033.853 10 0 59193 70200.00000 0 -10186348.318 20733294.548 -10855562.097 10 0 59193 71100.00000 0 -10775325.898 21744922.948 -7925598.533 10 0 59193 72000.00000 0 -11086313.121 22487341.233 -4842049.804 10 0 59193 72900.00000 0 -11153101.767 22915272.803 -1664722.635 10 0 59193 73800.00000 0 -11018471.454 22993210.506 1544832.303 10 0 59193 74700.00000 0 -10732147.995 22696983.774 4724504.777 10 0 59193 75600.00000 0 -10348484.287 22014869.391 7812815.326 10 0 59193 76500.00000 0 -9923961.640 20948200.644 10750089.410 10 0 59193 77400.00000 0 -9514616.338 19511450.325 13479593.818 10 0 59193 78300.00000 0 -9173498.875 17731784.572 15948614.864 10 0 59193 79200.00000 0 -8948271.468 15648105.995 18109459.176 10 0 59193 80100.00000 0 -8879043.553 13309625.244 19920359.364 10 0 59193 81000.00000 0 -8996534.980 10774019.052 21346268.686 10 0 59193 81900.00000 0 -9320643.256 8105249.326 22359530.774 10 0 59193 82800.00000 0 -9859474.682 5371131.581 22940412.420 10 0 59193 83700.00000 0 -10608880.494 2640751.018 23077489.695 10 0 59193 84600.00000 0 -11552518.666 -18169.171 22767879.901 10 0 59193 85500.00000 0 -12662440.660 -2541840.325 22017314.207 10 0 59194 0.00000 0 -13900180.941 -4872816.905 20840048.407 10 0 59194 900.00000 0 -15218306.536 -6962142.319 19258611.538 10 0 59194 1800.00000 0 -16562363.919 -8771143.810 17303395.744 10 0 59194 2700.00000 0 -17873144.715 -10272800.622 15012092.213 10 0 59194 3600.00000 0 -19089176.513 -11452629.224 12428982.515 10 0 59194 4500.00000 0 -20149335.477 -12309046.343 9604096.744 10 0 59194 5400.00000 0 -20995471.061 -12853194.003 6592253.281 10 0 59194 6300.00000 0 -21574931.617 -13108232.624 3451997.780 10 0 59194 7200.00000 0 -21842882.864 -13108131.035 244461.709 10 0 59194 8100.00000 0 -21764319.209 -12896004.064 -2967836.952 10 0 59194 9000.00000 0 -21315680.360 -12522068.175 -6122226.530 10 0 59194 9900.00000 0 -20486002.194 -12041302.465 -9157122.240 10 0 59194 10800.00000 0 -19277550.694 -11510915.603 -12013248.448 10 0 59194 11700.00000 0 -17705909.957 -10987728.004 -14634816.602 10 0 59194 12600.00000 0 -15799519.037 -10525582.439 -16970633.653 10 0 59194 13500.00000 0 -13598676.218 -10172895.127 -18975117.510 10 0 59194 14400.00000 0 -11154052.439 -9970453.164 -20609198.190 10 0 59194 15300.00000 0 -8524776.783 -9949553.240 -21841086.077 10 0 59194 16200.00000 0 -5776175.226 -10130561.522 -22646891.879 10 0 59194 17100.00000 0 -2977258.385 -10521956.072 -23011086.337 10 0 59194 18000.00000 0 -198064.483 -11119892.045 -22926791.318 10 0 59194 18900.00000 0 2493030.708 -11908307.276 -22395897.660 10 0 59194 19800.00000 0 5031924.432 -12859562.550 -21429008.822 10 0 59194 20700.00000 0 7361209.304 -13935588.051 -20045212.923 10 0 59194 21600.00000 0 9432307.566 -15089486.080 -18271689.218 10 0 59194 22500.00000 0 11207229.918 -16267521.012 -16143158.184 10 0 59194 23400.00000 0 12659887.884 -17411411.423 -13701187.401 10 0 59194 24300.00000 0 13776907.784 -18460827.027 -10993367.944 10 0 59194 25200.00000 0 14557915.510 -19355984.919 -8072378.330 10 0 59194 26100.00000 0 15015283.414 -20040235.938 -4994954.963 10 0 59194 27000.00000 0 15173353.053 -20462532.916 -1820789.551 10 0 59194 27900.00000 0 15067169.161 -20579677.958 1388625.082 10 0 59194 28800.00000 0 14740780.146 -20358255.489 4571178.510 10 0 59194 29700.00000 0 14245178.044 -19776171.222 7665333.234 10 0 59194 30600.00000 0 13635965.227 -18823733.665 10611300.116 10 0 59194 31500.00000 0 12970845.972 -17504233.841 13352177.093 10 0 59194 32400.00000 0 12307047.675 -15833999.470 15835030.654 10 0 59194 33300.00000 0 11698778.950 -13841921.293 18011900.847 10 0 59194 34200.00000 0 11194829.974 -11568470.681 19840711.961 10 0 59194 35100.00000 0 10836414.349 -9064248.093 21286072.987 10 0 59194 36000.00000 0 10655341.803 -6388120.833 22319953.749 10 0 59194 36900.00000 0 10672597.525 -3605025.111 22922224.643 10 0 59194 37800.00000 0 10897387.498 -783520.958 23081050.140 10 0 59194 38700.00000 0 11326690.293 2006801.442 22793128.416 10 0 59194 39600.00000 0 11945335.330 4697958.935 22063771.865 10 0 59194 40500.00000 0 12726606.131 7226149.010 20906825.736 10 0 59194 41400.00000 0 13633345.561 9534154.746 19344424.750 10 0 59194 42300.00000 0 14619519.165 11573482.062 17406590.351 10 0 59194 43200.00000 0 15632173.376 13306140.725 15130674.090 10 0 59194 44100.00000 0 16613708.358 14705994.500 12560655.642 10 0 59194 45000.00000 0 17504371.265 15759623.076 9746307.080 10 0 59194 45900.00000 0 18244865.541 16466658.526 6742237.954 10 0 59194 46800.00000 0 18778965.984 16839580.827 3606838.684 10 0 59194 47700.00000 0 19056027.984 16902979.867 401142.493 10 0 59194 48600.00000 0 19033283.072 16692314.246 -2812371.643 10 0 59194 49500.00000 0 18677821.204 16252219.035 -5971010.757 10 0 59194 50400.00000 0 17968173.200 15634434.411 -9013108.671 10 0 59194 51300.00000 0 16895423.633 14895443.866 -11879249.725 10 0 59194 52200.00000 0 15463804.528 14093923.597 -14513449.432 10 0 59194 53100.00000 0 13690742.808 13288113.079 -16864266.821 10 0 59194 54000.00000 0 11606357.975 12533220.354 -18885824.924 10 0 59194 54900.00000 0 9252430.446 11878973.917 -20538717.961 10 0 59194 55800.00000 0 6680883.879 11367426.580 -21790786.455 10 0 59194 56700.00000 0 3951845.634 11031105.368 -22617744.739 10 0 59194 57600.00000 0 1131367.456 10891586.225 -23003648.693 10 0 59194 58500.00000 0 -1711097.215 10958553.605 -22941195.171 10 0 59194 59400.00000 0 -4505353.039 11229383.817 -22431848.338 10 0 59194 60300.00000 0 -7183148.153 11689268.391 -21485791.736 10 0 59194 61200.00000 0 -9680772.952 12311870.491 -20121708.565 10 0 59194 62100.00000 0 -11941464.559 13060484.764 -18366396.017 10 0 59194 63000.00000 0 -13917517.969 13889649.803 -16254222.723 10 0 59194 63900.00000 0 -15572017.643 14747143.502 -13826441.336 10 0 59194 64800.00000 0 -16880119.799 15576275.822 -11130370.865 10 0 59194 65700.00000 0 -17829834.694 16318381.403 -8218465.668 10 0 59194 66600.00000 0 -18422279.265 16915406.581 -5147289.993 10 0 59194 67500.00000 0 -18671392.630 17312481.918 -1976418.429 10 0 59194 68400.00000 0 -18603129.258 17460372.483 1232716.288 10 0 59194 69300.00000 0 -18254166.004 17317703.670 4418005.911 10 0 59194 70200.00000 0 -17670179.116 16852870.073 7517857.412 10 0 59194 71100.00000 0 -16903764.636 16045548.350 10472369.679 10 0 59194 72000.00000 0 -16012089.834 14887751.587 13224474.514 10 0 59194 72900.00000 0 -15054373.964 13384381.621 15721021.360 10 0 59194 73800.00000 0 -14089303.072 11553256.277 17913786.448 10 0 59194 74700.00000 0 -13172485.949 9424609.956 19760388.447 10 0 59194 75600.00000 0 -12354056.312 7040087.202 21225094.627 10 0 59194 76500.00000 0 -11676520.122 4451269.308 22279503.327 10 0 59194 77400.00000 0 -11172936.925 1717792.922 22903090.578 10 0 59194 78300.00000 0 -10865510.561 -1094863.975 23083610.922 10 0 59194 79200.00000 0 -10764648.034 -3917839.817 22817344.669 10 0 59194 80100.00000 0 -10868526.449 -6681491.747 22109186.231 10 0 59194 81000.00000 0 -11163187.288 -9318037.121 20972570.656 10 0 59194 81900.00000 0 -11623155.802 -11764126.661 19429238.073 10 0 59194 82800.00000 0 -12212561.596 -13963243.684 17508838.564 10 0 59194 83700.00000 0 -12886715.518 -15867830.260 15248382.838 10 0 59194 84600.00000 0 -13594078.583 -17441051.665 12691547.040 10 0 59194 85500.00000 0 -14278541.625 -18658124.598 9887843.188 10 0 59195 0.00000 0 -14881920.512 -19507152.495 6891669.718 10 0 59195 900.00000 0 -15346561.525 -19989431.221 3761259.069 10 0 59195 1800.00000 0 -15617946.750 -20119211.438 557543.461 10 0 59195 2700.00000 0 -15647186.435 -19922925.367 -2657040.120 10 0 59195 3600.00000 0 -15393292.061 -19437911.110 -5819780.525 10 0 59195 4500.00000 0 -14825130.168 -18710687.348 -8868933.390 10 0 59195 5400.00000 0 -13922971.843 -17794852.371 -11744946.281 10 0 59195 6300.00000 0 -12679569.377 -16748697.339 -14391642.011 10 0 59195 7200.00000 0 -11100712.204 -15632636.475 -16757334.827 10 0 59195 8100.00000 0 -9205236.729 -14506564.855 -18795855.826 10 0 59195 9000.00000 0 -7024488.359 -13427257.536 -20467466.058 10 0 59195 9900.00000 0 -4601257.857 -12445921.751 -21739638.406 10 0 59195 10800.00000 0 -1988236.712 -11606006.908 -22587692.541 10 0 59195 11700.00000 0 753943.175 -10941365.550 -22995270.661 10 0 59195 12600.00000 0 3559002.560 -10474842.906 -22954645.244 10 0 59195 13500.00000 0 6357543.956 -10217353.730 -22466853.886 10 0 59195 14400.00000 0 9079710.424 -10167484.017 -21541659.853 10 0 59195 15300.00000 0 11657862.729 -10311632.454 -20197340.628 10 0 59195 16200.00000 0 14029163.306 -10624683.419 -18460310.155 10 0 59195 17100.00000 0 16137960.117 -11071180.841 -16364583.661 10 0 59195 18000.00000 0 17937872.243 -11606951.185 -13951096.948 10 0 59195 18900.00000 0 19393492.177 -12181105.198 -11266894.677 10 0 59195 19800.00000 0 20481636.253 -12738332.482 -8364204.417 10 0 59195 20700.00000 0 21192093.617 -13221391.178 -5299415.320 10 0 59195 21600.00000 0 21527845.412 -13573687.346 -2131981.686 10 0 59195 22500.00000 0 21504747.774 -13741835.454 1076727.163 10 0 59195 23400.00000 0 21150694.445 -13678092.662 4264608.532 10 0 59195 24300.00000 0 20504296.102 -13342565.321 7370017.163 10 0 59195 25200.00000 0 19613133.179 -12705095.881 10332943.096 10 0 59195 26100.00000 0 18531656.091 -11746751.970 13096154.857 10 0 59195 27000.00000 0 17318820.822 -10460855.866 15606287.372 10 0 59195 27900.00000 0 16035558.244 -8853511.541 17814855.217 10 0 59195 28800.00000 0 14742181.900 -6943606.998 19679173.217 10 0 59195 29700.00000 0 13495841.148 -4762290.849 21163168.291 10 0 59195 30600.00000 0 12348124.492 -2351943.321 22238068.265 10 0 59195 31500.00000 0 11342911.702 235317.648 22882955.370 10 0 59195 32400.00000 0 10514563.203 2939535.839 23085174.372 10 0 59195 33300.00000 0 9886521.643 5695145.868 22840587.466 10 0 59195 34200.00000 0 9470383.930 8433442.394 22153670.449 10 0 59195 35100.00000 0 9265483.051 11085189.826 21037447.164 10 0 59195 36000.00000 0 9258998.266 13583266.584 19513261.804 10 0 59195 36900.00000 0 9426590.636 15865235.739 17610391.452 10 0 59195 37800.00000 0 9733539.024 17875736.121 15365504.078 10 0 59195 38700.00000 0 10136330.686 19568594.483 12821970.185 10 0 59195 39600.00000 0 10584641.082 20908569.957 10029039.435 10 0 59195 40500.00000 0 11023620.531 21872656.704 7040896.563 10 0 59195 41400.00000 0 11396391.592 22450888.632 3915613.730 10 0 59195 42300.00000 0 11646651.180 22646610.647 714019.403 10 0 59195 43200.00000 0 11721266.115 22476203.494 -2501494.042 10 0 59195 44100.00000 0 11572750.238 21968272.598 -5668199.822 10 0 59195 45000.00000 0 11161515.661 21162334.455 -8724277.786 10 0 59195 45900.00000 0 10457799.980 20107056.114 -11610040.934 10 0 59195 46800.00000 0 9443184.928 18858122.811 -14269121.342 10 0 59195 47700.00000 0 8111639.570 17475825.161 -16649590.196 10 0 59195 48600.00000 0 6470041.677 16022469.554 -18704988.134 10 0 59195 49500.00000 0 4538153.584 14559722.996 -20395244.300 10 0 59195 50400.00000 0 2348052.575 13146006.286 -21687465.005 10 0 59195 51300.00000 0 -56960.628 11834046.950 -22556576.163 10 0 59195 52200.00000 0 -2623929.287 10668695.977 -22985806.987 10 0 59195 53100.00000 0 -5292217.567 9685100.584 -22967006.059 10 0 59195 54000.00000 0 -7995813.484 8907309.372 -22500784.612 10 0 59195 54900.00000 0 -10665860.761 8347367.294 -21596485.508 10 0 59195 55800.00000 0 -13233313.231 8004936.632 -20271980.027 10 0 59195 56700.00000 0 -15631600.761 7867457.517 -18553298.002 10 0 59195 57600.00000 0 -17799195.825 7910838.590 -16474100.048 10 0 59195 58500.00000 0 -19681974.385 8100646.040 -14075003.630 10 0 59195 59400.00000 0 -21235274.058 8393738.449 -11402777.339 10 0 59195 60300.00000 0 -22425565.590 8740276.385 -8509420.101 10 0 59195 61200.00000 0 -23231670.109 9086020.466 -5451144.008 10 0 59195 62100.00000 0 -23645473.893 9374819.937 -2287281.040 10 0 59195 63000.00000 0 -23672113.386 9551186.447 920865.000 10 0 59195 63900.00000 0 -23329625.157 9562844.667 4111199.132 10 0 59195 64800.00000 0 -22648077.582 9363152.880 7222026.131 10 0 59195 65700.00000 0 -21668222.176 8913292.497 10193229.534 10 0 59195 66600.00000 0 -20439721.965 8184135.400 12967417.015 10 0 59195 67500.00000 0 -19019031.286 7157711.518 15491011.452 10 0 59195 68400.00000 0 -17467015.228 5828215.571 17715268.204 10 0 59195 69300.00000 0 -15846407.198 4202510.899 19597200.590 10 0 59195 70200.00000 0 -14219209.305 2300108.666 21100397.327 10 0 59195 71100.00000 0 -12644142.277 152621.975 22195717.614 10 0 59195 72000.00000 0 -11174249.566 -2197284.244 22861851.434 10 0 59195 72900.00000 0 -9854753.900 -4697406.468 23085734.954 10 0 59195 73800.00000 0 -8721254.433 -7287918.975 22862813.015 10 0 59195 74700.00000 0 -7798339.028 -9903616.803 22197143.126 10 0 59195 75600.00000 0 -7098669.458 -12476395.177 21101337.814 10 0 59195 76500.00000 0 -6622578.285 -14937865.091 19596344.797 10 0 59195 77400.00000 0 -6358195.325 -17221998.326 17711067.198 10 0 59195 78300.00000 0 -6282099.830 -19267693.243 15481828.894 10 0 59195 79200.00000 0 -6360472.574 -21021154.954 12951693.040 10 0 59195 80100.00000 0 -6550700.913 -22437990.167 10169644.958 10 0 59195 81000.00000 0 -6803370.372 -23484928.106 7189653.513 10 0 59195 81900.00000 0 -7064559.289 -24141093.816 4069628.067 10 0 59195 82800.00000 0 -7278339.469 -24398778.512 870290.873 10 0 59195 83700.00000 0 -7389376.152 -24263672.696 -2346012.914 10 0 59195 84600.00000 0 -7345515.531 -23754550.552 -5516543.561 10 0 59195 85500.00000 0 -7100247.951 -22902417.750 -8579407.880 10 0 59196 0.00000 0 -6614939.749 -21749158.106 -11474787.020 10 0 59196 900.00000 0 -5860735.827 -20345736.232 -14146125.212 10 0 59196 1800.00000 0 -4820051.013 -18750033.123 -16541253.241 10 0 59196 2700.00000 0 -3487582.286 -17024407.155 -18613423.839 10 0 59196 3600.00000 0 -1870799.512 -15233085.062 -20322236.569 10 0 59196 4500.00000 0 10108.949 -13439494.739 -21634433.168 10 0 59196 5400.00000 0 2122833.518 -11703653.653 -22524547.379 10 0 59196 6300.00000 0 4424058.784 -10079723.892 -22975396.595 10 0 59196 7200.00000 0 6861049.692 -8613837.177 -22978406.210 10 0 59196 8100.00000 0 9373641.359 -7342280.958 -22533761.363 10 0 59196 9000.00000 0 11896548.435 -6290120.717 -21650384.378 10 0 59196 9900.00000 0 14361896.540 -5470314.622 -20345739.816 10 0 59196 10800.00000 0 16701869.538 -4883355.292 -18645472.531 10 0 59196 11700.00000 0 18851361.952 -4517450.938 -16582887.281 10 0 59196 12600.00000 0 20750526.054 -4349235.291 -14198281.566 10 0 59196 13500.00000 0 22347108.218 -4344973.514 -11538145.898 10 0 59196 14400.00000 0 23598478.369 -4462210.638 -8654248.140 10 0 59196 15300.00000 0 24473269.570 -4651790.904 -5602620.547 10 0 59196 16200.00000 0 24952561.444 -4860161.269 -2442469.702 10 0 59196 17100.00000 0 25030560.277 -5031860.958 764969.393 10 0 59196 18000.00000 0 24714749.640 -5112091.825 3957612.861 10 0 59196 18900.00000 0 24025507.327 -5049261.373 7073718.861 10 0 59196 19800.00000 0 22995206.259 -4797391.960 10053067.656 10 0 59196 20700.00000 0 21666838.047 -4318295.715 12838109.066 10 0 59196 21600.00000 0 20092217.189 -3583424.622 15375056.611 10 0 59196 22500.00000 0 18329840.653 -2575318.816 17614908.792 10 0 59196 23400.00000 0 16442491.317 -1288592.732 19514379.408 10 0 59196 24300.00000 0 14494683.819 269582.415 21036720.589 10 0 59196 25200.00000 0 12550057.429 2079520.915 22152424.119 10 0 59196 26100.00000 0 10668822.645 4109589.386 22839788.541 10 0 59196 27000.00000 0 8905365.908 6317276.779 23085341.791 10 0 59196 27900.00000 0 7306110.470 8650725.797 22884111.280 10 0 59196 28800.00000 0 5907721.367 11050665.014 22239735.676 10 0 59196 29700.00000 0 4735728.627 13452664.451 21164415.178 10 0 59196 30600.00000 0 3803626.062 15789623.751 19678699.565 10 0 59196 31500.00000 0 3112483.927 17994391.724 17811116.127 10 0 59196 32400.00000 0 2651092.594 20002409.948 15597642.428 10 0 59196 33300.00000 0 2396632.527 21754271.080 13081031.769 10 0 59196 34200.00000 0 2315843.834 23198085.001 10310002.387 10 0 59196 35100.00000 0 2366647.311 24291553.029 7338304.385 10 0 59196 36000.00000 0 2500149.403 25003661.771 4223681.319 10 0 59196 36900.00000 0 2662946.601 25315923.531 1026746.200 10 0 59196 37800.00000 0 2799631.211 25223108.971 -2190206.023 10 0 59196 38700.00000 0 2855391.132 24733439.141 -5364425.525 10 0 59196 39600.00000 0 2778591.502 23868227.051 -8433948.723 10 0 59196 40500.00000 0 2523226.331 22660982.799 -11338827.406 10 0 59196 41400.00000 0 2051133.403 21156019.506 -14022319.801 10 0 59196 42300.00000 0 1333875.822 19406619.163 -16432018.097 10 0 59196 43200.00000 0 354207.930 17472836.572 -18520888.546 10 0 59196 44100.00000 0 -892938.638 15419035.267 -20248202.217 10 0 59196 45000.00000 0 -2399991.994 13311260.763 -21580337.093 10 0 59196 45900.00000 0 -4146820.680 11214563.165 -22491435.319 10 0 59196 46800.00000 0 -6101354.985 9190382.874 -22963902.771 10 0 59196 47700.00000 0 -8220722.534 7294109.948 -22988741.680 10 0 59196 48600.00000 0 -10452849.858 5572919.543 -22565710.811 10 0 59196 49500.00000 0 -12738461.977 4063973.443 -21703311.316 10 0 59196 50400.00000 0 -15013395.247 2793061.617 -20418600.039 10 0 59196 51300.00000 0 -17211125.918 1773738.531 -18736835.479 10 0 59196 52200.00000 0 -19265408.175 1006987.637 -16690964.857 10 0 59196 53100.00000 0 -21112911.216 481425.063 -14320963.748 10 0 59196 54000.00000 0 -22695745.570 174030.716 -11673042.445 10 0 59196 54900.00000 0 -23963773.957 51372.946 -8798735.495 10 0 59196 55800.00000 0 -24876611.396 71272.588 -5753893.021 10 0 59196 56700.00000 0 -25405232.702 184834.050 -2597593.879 10 0 59196 57600.00000 0 -25533122.131 338756.376 608998.053 10 0 59196 58500.00000 0 -25256919.083 477825.984 3803812.339 10 0 59196 59400.00000 0 -24586534.850 547485.848 6925062.868 10 0 59196 60300.00000 0 -23544737.103 496373.205 9912428.980 10 0 59196 61200.00000 0 -22166220.657 278719.690 12708204.977 10 0 59196 62100.00000 0 -20496203.918 -143486.111 15258397.302 10 0 59196 63000.00000 0 -18588609.429 -798663.688 17513749.753 10 0 59196 63900.00000 0 -16503903.744 -1704209.534 19430678.559 10 0 59196 64800.00000 0 -14306685.209 -2865529.745 20972100.936 10 0 59196 65700.00000 0 -12063118.299 -4275577.243 22108142.580 10 0 59196 66600.00000 0 -9838319.188 -5914914.009 22816711.525 10 0 59196 67500.00000 0 -7693799.121 -7752297.563 23083927.998 10 0 59196 68400.00000 0 -5685069.842 -9745769.668 22904402.061 10 0 59196 69300.00000 0 -3859509.083 -11844204.720 22281353.230 10 0 59196 70200.00000 0 -2254573.775 -13989256.398 21226568.664 10 0 59196 71100.00000 0 -896434.805 -16117624.510 19760199.129 10 0 59196 72000.00000 0 200909.571 -18163550.206 17910394.680 10 0 59196 72900.00000 0 1036004.067 -20061437.570 15712784.848 10 0 59196 73800.00000 0 1619773.916 -21748493.473 13209811.084 10 0 59196 74700.00000 0 1974835.218 -23167275.648 10449922.325 10 0 59196 75600.00000 0 2134305.883 -24268041.862 7486647.521 10 0 59196 76500.00000 0 2140166.387 -25010800.376 4377561.920 10 0 59196 77400.00000 0 2041239.032 -25366973.588 1183166.735 10 0 59196 78300.00000 0 1890871.385 -25320602.655 -2034295.855 10 0 59196 79200.00000 0 1744422.878 -24869039.976 -5212068.473 10 0 59196 80100.00000 0 1656662.610 -24023098.168 -8288119.642 10 0 59196 81000.00000 0 1679190.890 -22806647.586 -11202374.176 10 0 59196 81900.00000 0 1857996.394 -21255678.223 -13897906.755 10 0 59196 82800.00000 0 2231255.197 -19416865.242 -16322073.173 10 0 59196 83700.00000 0 2827467.550 -17345698.916 -18427555.232 10 0 59196 84600.00000 0 3664013.602 -15104258.596 -20173297.325 10 0 59196 85500.00000 0 4746190.897 -12758725.727 -21525315.174 99